GFSSW_700_temp_000.txt.gz
Temp
12 13 13 13 13 13 13 14 14 14 14 14 15 15 15 15 16 16 16 16 16 16 16 16 16 16 16 16 15 14 15 12 14 15 18 18 18 17 17 15 13 13 12 13 13
12 12 13 13 13 13 14 14 14 14 14 14 15 15 15 15 16 16 16 16 16 16 16 16 16 16 16 14 14 15 14 14 16 17 18 18 18 18 17 16 15 13 13 13 14
12 12 12 13 13 13 14 14 14 14 14 15 15 15 15 15 15 16 16 16 16 16 16 16 16 15 14 14 15 16 15 17 17 18 17 18 18 18 17 14 14 15 14 13 13
12 12 12 13 13 13 14 14 14 14 14 15 15 15 15 15 14 15 16 16 16 16 16 16 15 14 14 15 16 16 17 17 18 17 17 18 18 18 18 16 15 15 15 14 14
12 12 12 13 13 13 14 14 14 14 14 15 15 15 15 15 15 15 16 16 16 16 16 16 15 13 14 16 16 17 17 17 18 17 18 17 17 18 17 16 15 15 15 14 15
12 12 12 13 13 13 14 14 14 14 14 14 14 14 15 14 15 15 16 16 16 16 16 16 14 14 15 16 17 17 17 17 17 17 18 18 18 17 17 16 15 14 13 14 13
11 12 12 13 13 13 13 14 14 14 14 14 14 14 14 14 15 15 15 16 16 16 15 15 13 14 15 15 16 17 17 17 17 18 18 18 17 17 16 16 15 14 13 13 12
11 11 12 12 12 13 13 13 13 14 14 14 14 14 14 15 15 15 15 15 16 16 14 13 14 13 14 15 16 16 17 17 18 19 18 18 17 17 16 16 15 15 14 13 12
10 11 11 12 12 12 12 12 13 13 13 13 13 13 13 15 15 15 15 14 15 15 15 14 14 14 14 15 16 17 18 18 17 17 18 18 17 16 16 16 15 15 14 13 12
10 10 11 11 11 12 12 12 12 12 13 13 13 13 14 14 14 15 15 14 15 15 14 15 15 13 14 16 17 19 19 15 14 15 18 18 18 17 16 17 16 15 14 13 13
10 10 10 11 11 11 12 12 12 12 13 13 12 13 12 12 14 14 15 14 14 13 12 13 13 15 16 17 17 18 18 19 17 18 18 18 18 18 17 16 17 16 15 14 13
9 9 10 10 11 11 11 11 12 12 13 13 13 13 13 12 13 13 14 13 12 12 13 14 14 15 16 17 17 18 18 18 18 18 18 18 18 18 17 15 16 16 15 14 13
9 9 9 9 10 10 10 10 11 11 12 14 14 13 13 13 13 13 13 13 12 13 14 15 16 16 16 16 17 17 17 18 18 18 18 18 18 17 17 17 15 16 15 14 14
9 8 9 9 9 10 9 10 10 10 11 14 14 13 13 13 13 14 13 13 13 14 14 15 16 16 16 16 17 17 18 18 18 18 19 18 19 19 17 16 15 13 15 14 14
9 9 9 9 9 9 7 9 10 10 13 15 14 13 13 13 15 15 13 12 13 14 15 16 16 16 16 16 17 17 18 18 17 17 18 18 18 16 16 15 14 15 13 15 13
9 9 9 9 9 8 9 9 9 9 13 15 14 13 13 13 14 14 14 12 13 14 15 16 17 16 16 17 17 17 17 17 16 17 18 18 18 16 16 16 16 16 15 14 12
8 9 9 9 8 9 8 8 8 10 14 15 15 14 14 14 14 15 14 13 13 14 15 16 16 16 16 16 17 16 16 17 17 18 18 18 19 18 17 16 16 15 14 13 12
8 8 8 8 8 8 7 6 9 12 13 15 15 15 15 15 15 15 14 14 13 14 16 16 17 16 16 16 17 17 16 17 17 18 17 16 17 17 17 16 16 15 14 13 12
7 8 8 8 8 7 7 7 9 11 13 15 15 14 15 15 16 16 15 14 14 14 15 17 18 18 17 16 16 17 17 17 17 18 18 14 16 16 16 15 16 16 14 13 12
6 7 7 7 7 7 6 7 10 11 12 13 14 14 15 16 16 16 16 15 15 15 15 16 17 17 18 17 16 16 17 17 17 17 17 19 18 16 15 14 13 14 14 13 12
5 5 4 4 6 5 5 7 9 10 11 11 12 13 14 15 16 16 16 16 16 16 16 16 16 17 18 17 17 17 16 17 17 18 19 18 13 14 15 15 15 13 13 12 12
4 4 3 3 4 4 6 7 8 10 11 10 10 11 13 14 15 15 16 16 16 16 16 16 16 16 17 17 16 17 17 17 17 17 18 18 14 14 13 12 14 12 12 11 12
3 3 3 3 4 5 6 7 8 9 10 10 10 11 12 13 13 14 15 16 16 16 16 16 15 16 16 17 17 17 17 17 17 16 17 17 17 13 11 11 12 13 11 11 11
3 3 4 3 4 5 7 8 9 9 10 10 10 11 11 12 12 13 14 15 15 15 15 15 15 15 17 17 16 17 17 17 17 17 17 17 15 14 14 13 12 12 11 11 11
2 2 4 5 5 5 5 7 9 9 9 9 9 10 11 11 12 12 13 14 14 14 14 14 14 15 16 16 16 17 17 17 17 17 17 17 15 14 15 13 13 11 10 11 12
-1 -0 1 2 2 3 6 6 7 9 9 9 9 10 11 11 11 12 12 13 14 14 13 13 14 14 15 16 17 17 17 17 17 17 17 17 14 13 13 13 12 11 10 12 12
0 0 -0 1 2 3 5 6 7 7 8 9 9 9 10 10 11 11 12 12 13 13 13 13 13 13 14 15 16 17 17 17 17 17 17 16 14 12 11 10 12 10 10 10 12

GFSSW_700_temp_003.txt.gz
Temp
12 13 13 13 13 13 13 14 14 14 14 14 15 15 16 16 16 16 16 16 16 16 16 16 16 16 16 16 15 14 14 15 16 16 17 17 17 17 16 16 15 16 15 14 13
12 12 13 13 13 13 13 14 14 14 14 14 15 15 15 16 16 16 16 16 17 17 17 16 16 16 16 16 15 14 15 16 16 16 17 17 16 16 16 16 15 16 15 14 14
12 12 12 13 13 13 13 14 14 14 14 14 15 15 15 15 16 16 16 17 17 17 17 16 16 16 16 15 15 15 15 16 17 17 17 18 17 17 15 16 16 16 16 14 14
12 12 12 13 13 13 13 14 14 14 14 15 15 15 15 15 15 16 16 17 17 17 17 17 17 16 15 15 16 16 16 17 17 17 17 17 17 16 16 16 15 16 16 15 15
12 12 12 12 13 13 13 14 14 14 14 14 15 15 15 15 16 16 16 16 16 16 17 17 17 16 15 16 16 16 17 17 17 17 17 18 18 17 16 16 15 16 16 16 15
12 12 12 13 13 13 13 14 14 14 14 14 14 15 15 15 15 16 16 16 16 16 16 17 17 15 15 15 15 16 17 17 17 17 18 18 18 17 17 16 15 15 15 15 15
12 12 12 12 13 13 13 13 14 14 14 14 14 14 15 14 15 15 16 16 16 16 16 16 17 15 15 15 16 16 17 17 17 17 18 17 18 17 17 17 15 14 14 13 13
11 11 12 12 12 13 13 13 14 14 14 14 14 14 14 15 15 15 15 16 16 16 16 17 16 16 16 16 15 16 16 17 17 17 17 17 18 18 17 16 15 15 15 14 14
11 11 11 12 12 12 13 13 13 13 14 14 14 14 14 15 15 15 15 15 16 16 16 16 16 16 16 15 15 16 16 16 16 17 17 17 17 17 16 17 15 11 15 16 15
10 11 11 11 11 12 12 12 12 13 13 13 14 14 14 14 15 15 15 15 15 15 16 16 15 16 16 15 15 16 16 16 17 17 17 18 18 16 17 15 13 13 10 11 14
10 10 10 10 11 11 11 12 12 13 13 13 13 14 13 13 14 15 15 14 15 15 15 15 15 16 16 15 16 17 17 17 17 17 17 18 17 17 17 16 14 15 12 11 12
9 10 10 10 10 11 11 11 13 12 14 14 13 14 15 13 13 14 15 14 14 15 14 13 14 16 15 15 16 17 17 17 18 18 17 18 18 18 17 17 17 15 13 12 11
9 9 10 10 10 10 10 11 11 12 12 15 14 14 14 13 13 14 14 14 14 13 13 13 16 16 16 16 16 17 17 17 18 18 17 18 18 18 17 17 15 14 13 12 12
9 9 9 9 10 10 9 11 11 11 12 15 15 15 14 13 13 13 13 14 13 13 13 13 15 15 16 16 16 16 17 17 18 18 18 18 17 17 17 16 16 15 15 14 14
9 9 9 9 9 9 10 11 10 10 9 16 14 14 15 13 15 15 13 13 14 13 13 14 15 15 16 16 16 17 17 17 17 17 17 17 17 15 16 16 16 15 15 15 13
8 8 9 9 9 9 10 9 9 9 9 15 15 15 14 14 14 14 14 13 13 13 14 14 15 16 16 16 16 17 17 17 17 17 15 17 17 14 16 16 16 15 14 13 13
8 8 8 9 9 10 10 8 8 8 13 15 14 14 14 13 14 14 14 13 13 13 13 14 15 16 16 16 16 17 17 16 13 13 12 17 17 13 16 16 15 14 14 13 13
8 8 8 8 9 9 9 7 7 10 13 15 14 14 14 14 14 14 14 14 13 13 14 14 15 16 16 16 16 17 17 16 13 12 15 17 15 14 14 16 15 14 14 14 13
7 8 8 8 9 8 8 6 8 12 12 13 13 15 15 15 15 15 15 15 14 14 14 14 15 16 17 16 16 17 17 17 16 16 16 16 16 14 13 15 14 14 14 14 14
6 7 7 8 8 8 6 8 9 11 11 11 12 13 15 15 15 15 15 15 15 15 14 15 14 16 17 17 16 17 17 17 17 13 12 14 13 14 14 14 14 13 13 13 14
6 6 6 6 7 7 6 8 9 10 10 11 11 12 13 14 14 15 16 16 15 15 15 15 15 16 16 17 17 16 16 17 16 17 12 12 14 15 13 13 13 13 12 13 13
5 4 3 4 5 6 7 7 8 10 9 10 11 11 11 12 12 14 15 16 16 16 16 16 16 16 16 17 17 17 17 17 17 16 17 16 14 14 12 13 14 14 12 12 13
4 3 3 3 3 4 5 6 7 7 8 10 10 11 11 11 11 13 14 16 15 16 17 16 16 16 16 16 17 17 17 17 17 17 17 14 14 14 14 14 14 13 12 11 12
3 4 3 3 3 4 5 6 7 8 8 9 10 10 10 11 11 12 14 14 15 15 15 16 15 16 15 16 16 16 17 17 17 17 17 17 14 13 14 14 14 11 10 10 10
3 1 1 3 4 4 4 5 6 7 9 9 10 10 10 11 11 12 13 13 14 15 15 15 14 15 15 15 16 16 16 17 17 17 17 17 16 15 13 13 12 11 9 8 10
2 3 2 3 2 3 4 4 5 7 8 9 9 9 10 10 11 12 12 13 13 13 14 14 14 14 14 14 15 14 15 17 17 17 17 17 16 14 14 12 13 11 12 9 10
2 1 1 3 3 3 4 5 6 6 7 8 9 9 9 10 11 11 12 12 12 12 13 13 13 13 13 14 14 15 16 16 16 17 16 17 16 15 15 14 14 13 12 10 11

GFSSW_700_temp_006.txt.gz
Temp
12 12 12 13 13 13 13 14 14 14 14 14 15 15 16 16 16 16 16 16 16 16 16 16 15 15 15 15 15 16 15 16 16 15 16 15 15 15 15 15 16 15 15 14 14
12 12 12 13 13 13 13 14 14 14 14 14 15 15 15 16 16 16 16 16 16 16 16 16 16 15 15 15 15 15 15 15 16 16 17 15 15 15 15 16 16 16 15 14 14
12 12 12 12 13 13 13 13 14 14 14 14 14 15 15 16 16 16 16 16 16 17 16 16 16 16 16 15 15 15 16 16 16 16 17 16 16 16 16 16 15 16 15 14 14
11 12 12 12 13 13 13 13 14 14 14 14 14 15 15 15 16 15 16 16 16 17 17 16 16 16 16 16 15 15 16 15 16 16 17 17 17 16 17 16 16 16 15 14 14
11 11 12 12 12 13 13 13 14 14 14 14 14 15 15 15 15 15 16 16 16 16 16 16 16 16 16 16 16 15 16 16 16 17 16 17 17 16 17 16 16 16 16 14 14
11 12 12 12 12 13 13 13 14 14 14 14 14 15 15 15 15 15 16 16 16 16 16 16 16 16 15 15 15 15 16 16 17 17 17 17 17 17 17 15 15 16 15 14 14
11 11 12 12 12 12 13 13 13 14 14 14 14 15 15 15 15 15 16 16 16 16 16 16 16 16 15 16 15 15 16 16 17 17 17 17 16 17 16 15 15 14 13 12 15
11 11 11 12 12 12 13 13 13 14 14 14 14 14 15 15 15 15 16 16 16 16 16 16 16 16 15 15 16 16 16 16 17 17 17 17 17 16 15 15 15 15 14 13 11
11 11 11 12 12 12 12 13 13 14 14 14 14 15 14 15 15 15 15 15 15 15 16 16 16 16 15 15 15 16 16 17 17 17 17 17 17 16 14 15 16 15 14 11 10
10 11 11 11 11 12 12 13 13 14 14 14 14 14 15 14 15 16 15 15 16 16 16 16 16 16 16 15 16 16 16 16 17 18 17 17 17 17 14 15 16 16 15 14 13
10 10 10 11 11 11 12 12 12 13 14 14 14 14 14 14 14 15 15 15 16 16 15 15 15 17 16 15 16 15 15 15 17 17 17 18 17 17 17 16 16 15 14 14 12
9 10 10 10 11 11 11 12 12 13 14 14 14 14 14 15 15 14 14 15 15 15 14 14 16 16 15 15 15 15 15 16 17 17 17 17 17 16 15 16 16 15 14 14 13
9 9 10 10 10 10 11 12 12 12 13 15 14 15 14 14 15 14 14 14 14 14 14 14 16 15 15 15 15 16 16 16 17 17 17 17 17 16 15 14 15 14 13 13 14
9 9 10 9 10 10 11 11 11 12 12 15 16 16 14 13 14 14 14 13 13 15 13 13 16 15 15 15 15 16 16 16 16 17 17 16 16 17 15 15 14 15 14 14 14
9 9 10 9 10 9 10 10 10 11 9 15 15 14 15 14 15 15 14 13 13 14 13 15 15 15 15 15 16 16 16 16 16 16 16 17 16 16 16 15 15 16 14 14 14
8 9 9 10 10 10 10 10 9 10 10 14 14 15 15 14 15 14 13 13 13 13 13 13 14 14 15 15 16 16 16 16 16 16 15 17 16 17 16 16 16 15 14 14 14
8 8 9 9 9 10 10 8 8 9 13 14 14 14 15 15 15 14 13 13 12 12 13 13 14 15 14 15 15 16 16 15 13 12 12 16 15 16 16 15 15 15 15 15 14
8 8 8 8 9 9 9 8 7 11 13 12 13 13 14 14 14 13 13 13 13 13 13 13 13 15 16 15 16 16 16 15 11 10 13 16 15 15 15 14 15 14 15 14 12
7 8 8 8 9 9 9 7 10 11 10 11 12 13 14 14 14 14 14 13 14 14 13 13 14 15 15 16 15 16 16 16 16 15 13 15 13 14 15 15 14 15 14 13 12
7 7 7 8 8 8 8 9 10 11 10 10 11 11 11 12 13 14 14 14 14 14 14 14 14 15 16 15 16 16 16 16 15 13 12 12 13 13 13 14 14 13 13 13 13
6 6 7 7 7 7 7 8 10 10 9 9 10 10 11 11 12 12 13 14 15 15 15 14 14 15 15 15 16 16 16 16 16 16 11 9 13 14 15 14 14 13 12 11 11
5 5 5 5 6 6 7 8 8 10 9 9 9 10 11 11 11 12 13 14 14 15 15 15 15 14 15 15 15 16 16 16 16 16 15 15 14 15 15 15 14 13 13 13 12
4 3 3 3 4 5 5 6 6 8 8 9 9 10 10 10 11 12 13 15 13 14 15 15 14 15 15 15 16 16 16 16 16 16 16 13 15 15 15 13 13 12 13 13 13
3 2 1 2 3 3 4 4 5 7 7 8 9 9 10 10 10 11 13 13 13 13 14 15 15 15 15 15 15 15 15 16 16 16 16 16 16 14 14 13 13 13 13 12 11
3 2 2 2 2 2 3 3 5 6 6 7 9 9 9 10 10 11 12 12 13 13 14 14 15 15 15 15 15 15 15 15 15 16 16 17 16 15 15 14 13 13 12 11 11
2 2 2 2 2 2 3 4 4 5 5 8 7 9 9 9 10 10 11 11 11 13 13 13 14 14 14 15 14 15 15 14 15 16 15 16 15 16 14 13 14 13 13 13 10
1 1 1 1 2 2 3 3 4 4 6 6 7 7 8 9 10 10 10 10 11 11 12 12 13 13 13 14 14 14 15 14 14 14 15 16 16 16 14 14 14 13 13 12 11

GFSSW_700_temp_009.txt.gz
Temp
12 12 12 12 13 13 13 13 13 14 14 14 14 14 15 15 15 15 16 16 16 16 15 15 15 15 15 15 15 16 16 16 15 15 15 15 15 15 14 15 15 15 14 14 14
12 12 12 12 13 13 13 13 13 13 14 14 14 14 15 15 15 16 16 16 16 16 15 15 15 15 15 15 15 16 16 16 15 15 14 15 14 14 15 15 15 15 14 14 14
11 12 12 12 13 13 13 13 13 14 14 14 14 14 14 15 15 16 16 16 16 16 16 16 16 15 15 15 15 15 16 15 16 15 15 14 15 15 16 16 15 15 15 14 14
11 12 12 12 12 13 13 13 13 14 14 14 14 14 14 15 15 15 15 16 16 16 16 16 16 15 15 15 15 16 15 15 16 16 16 16 15 16 16 16 15 15 14 14 14
11 11 12 12 12 13 13 13 13 14 14 14 14 14 14 15 14 15 15 15 16 16 16 15 15 15 15 15 15 16 15 16 16 16 17 16 17 16 16 15 15 15 15 14 13
11 11 12 12 12 12 13 13 13 14 14 14 14 14 14 14 14 15 15 15 15 16 15 15 15 15 15 15 15 16 16 16 16 16 17 17 17 16 16 16 15 15 14 13 13
11 11 11 12 12 12 13 13 13 14 14 14 14 14 14 14 14 14 15 15 15 15 15 15 15 15 15 15 15 16 16 16 16 17 17 17 16 16 16 15 15 15 14 14 15
11 11 11 12 12 12 13 13 13 14 14 14 14 14 14 15 15 14 15 15 15 15 15 15 15 16 16 15 15 15 15 16 17 17 17 16 16 16 16 16 15 16 15 14 14
10 11 11 11 12 12 13 13 13 14 14 14 14 14 14 15 15 14 14 15 15 15 15 15 15 15 15 15 15 15 16 16 16 16 16 15 16 16 16 16 16 15 14 15 14
10 10 11 11 12 12 13 13 13 14 14 14 14 14 15 14 15 14 15 15 14 14 14 14 15 15 15 15 16 15 15 16 16 17 16 16 15 16 16 16 16 15 14 14 14
10 10 10 11 11 11 12 13 13 13 14 14 15 15 15 15 15 14 14 15 15 15 15 15 15 16 15 15 15 15 15 15 16 16 16 17 15 15 15 15 14 14 14 14 14
9 10 9 10 11 11 12 12 13 13 14 15 15 15 15 15 15 15 15 15 15 15 15 15 16 15 14 14 14 14 15 15 16 16 16 17 17 16 16 16 16 14 14 14 14
9 9 9 10 10 10 11 12 12 12 13 15 15 15 14 14 15 15 15 14 14 14 14 15 15 15 15 14 14 15 15 16 16 16 16 17 16 16 16 17 16 14 14 14 14
9 9 9 9 9 10 11 11 11 11 12 15 15 16 15 14 14 14 14 14 14 14 13 13 15 15 14 15 15 15 16 15 16 16 16 16 15 16 16 16 16 15 15 14 14
9 9 9 9 9 10 10 10 10 10 9 14 14 14 15 14 14 15 14 13 14 13 13 14 14 14 14 15 14 15 15 15 16 16 16 16 15 15 16 17 17 15 14 15 14
9 9 9 9 9 10 10 9 9 10 10 13 13 14 15 14 14 14 14 13 12 12 12 13 13 13 14 15 14 15 15 15 16 16 14 16 15 16 15 16 16 15 14 15 14
8 9 9 9 9 9 9 9 8 9 12 12 13 13 14 15 14 13 14 13 12 12 13 14 14 14 14 14 15 14 15 15 13 11 11 15 15 16 16 15 15 15 15 15 13
8 8 9 8 9 9 9 8 8 10 11 11 12 12 13 14 14 13 13 12 13 13 12 12 13 15 15 14 14 15 15 15 11 9 12 15 15 15 16 15 15 14 14 14 13
8 8 8 8 9 9 8 8 10 10 9 10 12 12 13 13 13 13 13 13 13 14 12 12 13 14 14 14 15 15 15 15 15 13 12 14 14 14 15 15 15 14 14 12 11
7 7 8 8 8 8 8 9 9 9 9 9 11 11 12 12 12 12 13 14 14 14 13 13 12 14 15 14 15 15 15 15 15 11 12 12 13 15 15 15 15 15 13 12 12
6 7 7 7 7 7 7 8 9 9 9 9 10 10 11 11 11 12 13 13 13 13 13 13 13 15 14 14 15 15 15 15 15 15 10 9 14 16 15 15 14 14 14 13 13
5 5 5 6 6 6 7 7 8 8 8 8 9 9 10 10 10 11 13 14 13 13 14 15 13 13 14 15 15 15 15 15 15 14 14 14 15 16 15 14 14 13 13 13 12
4 4 4 4 4 5 5 6 6 7 8 8 8 9 9 10 9 11 12 13 13 12 12 13 13 13 14 14 15 15 15 15 15 15 15 13 15 15 14 14 14 14 13 13 12
3 2 2 2 3 3 3 4 5 6 7 7 8 9 9 9 9 10 11 13 13 13 13 13 13 13 13 15 15 15 15 14 14 15 15 15 16 15 15 15 14 13 14 13 12
2 2 3 2 2 2 2 3 4 4 5 6 6 7 8 8 9 10 10 11 13 13 13 13 13 14 14 15 14 15 15 15 14 14 14 15 15 15 16 15 14 14 13 13 12
2 1 2 1 1 2 2 2 3 3 4 5 5 7 7 7 8 9 10 10 11 12 12 12 13 13 13 13 13 14 15 15 14 14 15 15 15 16 15 15 14 14 13 12 12
1 1 1 1 1 1 2 2 3 3 4 5 5 7 7 7 8 9 9 10 9 10 11 11 12 13 13 13 13 14 14 14 14 14 14 15 16 15 16 15 14 13 12 13 12

GFSSW_700_temp_012.txt.gz
Temp
12 12 12 12 12 13 13 13 13 13 13 13 14 14 14 15 15 15 15 15 15 15 15 15 15 15 15 15 15 15 15 15 15 15 15 15 15 15 15 15 15 14 14 14 14
11 12 12 12 12 13 13 13 13 13 13 13 14 14 14 15 15 15 15 15 15 15 15 15 15 15 15 15 15 15 15 15 15 15 15 15 15 14 14 14 15 15 14 14 14
11 12 12 12 12 13 13 13 13 13 13 13 13 14 14 14 15 15 15 15 15 16 16 16 16 15 15 15 15 15 15 15 16 16 16 16 16 15 15 15 15 14 14 14 14
11 12 12 12 12 13 13 13 13 13 13 13 14 14 14 14 14 14 15 15 15 16 16 15 15 15 15 15 15 15 16 16 16 16 16 16 16 16 16 16 15 15 14 14 13
11 11 12 12 12 12 13 13 13 13 13 13 14 14 14 14 14 14 14 15 15 15 15 15 15 15 15 15 15 15 16 16 16 16 16 16 16 16 16 16 15 15 15 14 13
11 11 12 12 12 12 13 13 13 13 14 13 14 14 14 14 14 14 14 15 15 15 15 15 15 15 15 15 15 15 16 16 16 16 16 16 16 16 17 16 15 15 15 14 14
10 11 11 12 12 12 13 13 13 13 13 14 14 14 14 14 14 14 14 14 15 14 14 15 15 15 15 15 15 15 16 16 16 16 16 16 16 16 16 16 15 15 15 14 14
10 11 11 11 12 12 12 13 13 13 13 14 14 14 14 14 14 14 14 14 14 14 14 15 15 15 15 15 15 15 15 16 16 16 16 16 15 16 17 16 16 15 15 14 14
10 10 11 11 11 12 12 13 13 13 13 14 14 14 14 14 14 14 14 14 14 14 14 14 15 15 15 15 15 15 15 15 16 16 15 15 15 16 16 16 15 15 15 14 14
10 10 10 11 11 12 12 12 13 13 14 14 14 14 14 14 14 14 14 14 14 14 14 14 14 15 15 15 15 15 15 15 15 16 16 16 16 16 16 16 15 15 14 14 14
10 10 10 11 11 11 12 12 13 13 13 14 14 14 15 14 14 14 14 14 14 14 14 14 14 15 14 14 14 14 14 14 16 16 16 16 17 16 16 16 16 16 14 13 14
9 10 10 10 10 11 11 12 12 12 14 14 14 15 14 14 14 14 14 14 14 14 14 14 15 14 14 14 14 14 14 15 15 15 16 16 16 16 16 16 16 15 14 13 13
9 9 10 10 10 10 11 11 11 12 13 14 14 15 14 14 14 14 14 14 13 13 14 14 14 14 14 14 14 14 14 15 15 15 16 16 16 16 16 17 16 16 14 12 13
9 9 9 9 10 10 10 10 11 11 13 14 15 15 15 14 14 13 13 13 13 13 13 13 14 14 14 14 14 14 14 14 14 15 15 15 15 16 17 16 16 16 14 13 13
9 9 9 9 9 9 10 10 10 10 9 14 14 14 14 14 14 14 14 13 14 13 13 13 13 13 14 14 14 14 14 14 15 15 15 15 15 16 16 16 16 15 14 13 13
8 9 9 9 9 10 9 9 9 10 10 13 13 13 14 14 14 14 14 13 13 12 12 12 13 13 14 14 13 14 14 14 15 15 14 15 14 16 16 16 16 15 14 13 12
8 9 9 9 9 9 9 9 8 9 11 12 12 13 13 13 12 12 13 13 13 12 13 13 14 14 14 14 14 14 14 14 12 11 11 14 14 16 16 16 16 15 14 13 12
8 8 8 9 9 8 9 9 8 10 11 11 12 12 13 13 13 13 12 13 13 13 12 12 13 14 14 14 14 14 14 14 11 9 12 14 15 16 16 16 15 15 14 13 14
7 8 8 8 8 8 8 8 9 10 10 11 11 12 12 12 12 12 12 13 13 13 12 12 13 14 13 13 14 14 14 15 15 12 12 14 15 16 15 15 15 15 15 14 14
6 7 8 8 8 7 7 8 8 9 9 10 11 11 11 12 12 12 12 13 13 13 13 13 12 13 13 13 13 14 14 14 14 10 11 12 14 16 16 15 15 15 14 14 13
6 6 7 7 7 7 7 7 8 8 9 9 10 10 10 11 11 12 12 13 13 12 13 13 12 13 12 13 14 14 15 14 14 14 9 8 14 16 16 15 15 15 14 14 13
5 5 6 6 6 6 7 6 7 8 9 9 9 9 9 10 10 11 12 13 12 12 13 13 12 12 13 13 13 14 15 14 14 13 13 12 15 16 16 15 14 14 14 13 12
4 4 4 5 5 5 5 6 6 7 7 8 8 8 8 9 10 11 11 12 12 12 12 13 12 12 13 13 14 14 14 15 14 14 14 12 15 16 16 15 15 14 14 13 12
3 2 3 3 3 4 4 5 5 5 6 6 7 7 8 9 9 10 11 11 12 12 12 12 12 13 14 15 14 14 14 15 14 14 14 15 15 15 16 15 15 14 14 13 12
2 2 2 2 3 2 2 3 3 4 4 5 5 6 7 8 9 9 10 11 11 11 11 12 12 13 14 15 13 14 14 15 15 14 14 14 15 15 16 16 15 13 13 13 12
2 1 2 2 2 2 2 3 3 3 4 4 5 5 6 7 7 9 9 10 10 11 11 12 12 13 13 14 13 13 14 14 14 14 14 14 15 15 15 16 14 13 14 13 12
1 1 1 1 2 2 2 2 3 3 3 3 4 5 6 6 7 7 9 9 10 10 11 11 12 12 13 12 13 13 14 14 14 14 14 14 15 15 15 15 14 13 13 13 13

GFSSW_700_temp_015.txt.gz
Temp
12 12 12 12 12 12 12 13 13 13 13 14 14 14 14 15 15 15 15 15 15 15 15 15 15 15 15 15 15 15 15 15 15 15 15 15 15 15 14 14 14 14 14 14 14
11 12 12 12 12 12 12 13 13 13 13 13 14 14 14 15 15 15 15 15 15 16 16 15 15 15 15 15 15 15 15 15 15 16 16 16 16 15 15 15 15 14 14 14 13
11 12 12 12 12 12 12 13 13 13 13 13 13 14 14 14 15 15 15 16 16 16 16 15 15 15 15 15 15 15 15 15 16 16 16 16 16 16 16 16 15 15 14 13 13
11 11 12 12 12 12 12 13 13 13 13 13 13 13 14 14 14 15 15 15 16 16 16 15 15 15 15 15 15 15 15 16 16 16 16 16 16 16 16 16 15 15 14 14 13
11 11 11 12 12 12 12 13 13 13 13 13 13 13 13 14 14 14 15 15 16 16 16 15 15 15 15 15 15 15 15 16 16 16 16 16 16 16 16 16 16 15 15 14 14
10 11 11 11 12 12 12 13 13 13 13 13 13 13 13 14 14 14 14 15 15 16 16 15 15 15 15 15 15 16 16 16 16 16 16 16 16 16 17 16 16 15 15 14 14
10 10 11 11 11 12 12 13 13 13 13 13 13 14 13 14 14 14 14 14 15 15 15 15 15 15 15 15 15 15 16 16 16 16 16 16 16 16 16 16 16 15 15 14 14
10 10 10 11 11 12 12 12 12 13 13 13 13 14 14 14 14 14 14 14 14 15 15 15 15 15 15 15 15 15 16 15 15 16 16 16 16 15 16 16 15 15 15 14 14
9 10 10 10 11 11 12 12 12 13 13 13 13 14 14 14 14 14 14 14 14 14 15 15 14 14 14 15 15 15 15 15 15 15 16 16 17 16 16 16 16 16 15 14 13
9 10 10 10 11 11 12 12 12 13 13 13 13 13 14 14 14 14 14 14 14 14 14 14 14 14 14 14 15 15 15 15 15 15 16 16 17 17 16 16 16 16 15 13 13
9 10 10 10 11 11 11 12 12 12 13 13 14 14 14 14 14 14 14 14 14 14 14 14 14 15 14 14 14 14 14 14 15 15 15 16 16 17 17 16 16 15 14 13 13
9 9 10 10 10 11 11 12 12 12 13 13 14 14 14 14 14 14 14 14 14 14 14 14 14 14 14 14 14 14 14 15 15 15 15 16 16 17 16 16 15 15 14 13 12
9 9 9 10 10 11 11 11 11 12 13 13 14 14 14 14 13 13 14 14 13 13 13 13 14 14 13 13 13 13 14 14 14 15 15 16 16 16 16 16 16 16 14 13 12
9 9 9 9 10 10 11 11 11 12 13 13 14 14 13 13 13 13 13 13 13 13 13 13 13 14 13 13 13 14 13 14 14 15 15 15 16 16 16 16 16 16 14 14 13
8 9 9 9 9 10 10 10 10 11 12 13 13 13 14 13 13 13 13 12 13 13 13 13 13 13 13 13 13 13 14 14 15 15 15 15 15 16 16 16 16 16 14 14 13
8 9 9 9 9 9 9 9 10 10 11 12 12 13 13 13 13 13 12 12 12 12 12 13 13 13 13 13 13 13 13 14 14 14 15 15 14 16 16 16 15 15 15 14 13
8 8 8 9 9 9 9 9 9 9 12 11 12 12 12 12 12 12 13 12 12 12 12 13 14 14 13 13 13 13 13 15 15 15 16 14 13 16 16 16 15 15 15 14 14
8 8 8 9 9 9 9 9 8 10 11 11 11 12 12 12 12 12 13 13 12 12 12 13 14 14 13 13 14 14 14 15 14 15 15 14 14 16 16 15 15 15 14 14 14
7 8 8 8 8 8 8 8 9 10 11 11 11 11 12 12 12 11 12 12 13 13 12 13 13 13 13 13 13 13 14 15 14 13 14 14 15 16 16 15 15 15 14 14 14
6 7 8 8 8 8 7 8 9 9 10 11 11 11 11 11 12 12 12 13 12 12 13 12 12 13 13 13 13 13 14 14 14 14 14 14 14 15 16 16 16 15 14 14 13
5 6 7 7 7 7 7 7 8 8 9 10 10 10 11 11 11 12 12 12 12 13 12 12 12 12 12 13 13 13 14 14 14 14 16 16 16 16 16 16 16 15 14 14 13
5 5 6 6 6 6 7 6 7 8 8 9 9 9 9 10 11 11 12 12 12 12 12 13 12 12 13 13 13 13 13 13 14 13 13 13 15 16 16 15 15 14 14 13 12
4 4 4 5 5 6 6 6 6 7 7 8 8 8 9 10 10 11 11 11 11 12 12 12 12 12 13 13 13 14 14 14 14 14 14 15 15 16 16 15 15 15 13 13 13
3 3 3 3 3 4 4 5 5 5 6 7 7 8 8 9 9 10 11 10 11 11 12 12 12 13 14 14 14 14 14 14 14 14 14 14 15 15 16 16 16 15 14 13 12
3 2 2 2 2 3 3 3 4 4 5 6 6 7 7 8 8 9 10 10 11 11 11 12 12 12 13 13 13 13 14 14 14 15 15 15 15 15 15 15 16 15 14 13 12
2 2 2 2 2 2 2 3 3 4 4 5 5 6 6 7 7 8 9 10 10 10 11 11 12 12 13 14 14 13 14 13 14 14 14 15 15 15 15 15 15 15 14 13 12
1 2 2 1 2 2 2 2 3 3 3 4 4 5 5 6 6 7 8 9 9 10 10 11 11 12 12 13 13 12 14 14 14 14 14 14 15 15 15 15 15 15 13 13 12

GFSSW_700_temp_021.txt.gz
Temp
12 12 12 12 12 13 13 13 13 13 14 14 14 14 14 14 15 15 15 15 15 16 16 16 16 16 16 15 16 16 19 19 19 19 19 18 18 17 16 15 15 14 14 13 14
12 12 12 12 12 13 13 13 13 13 14 14 14 14 15 15 15 15 15 15 15 16 15 16 15 16 15 16 16 17 17 19 18 18 18 18 17 17 17 16 14 15 14 14 14
12 12 12 12 12 13 13 13 13 13 14 14 14 14 15 15 15 15 15 15 16 16 16 16 16 15 16 16 17 18 18 18 18 17 17 18 18 17 17 17 16 14 15 15 14
11 12 12 12 12 13 13 13 13 13 14 14 14 14 15 15 14 15 15 16 16 16 16 16 15 15 16 16 17 17 17 17 18 17 17 18 18 18 17 17 16 15 15 15 14
11 12 12 12 12 13 13 13 13 13 14 14 14 14 14 14 14 15 15 16 16 16 16 15 14 15 16 17 16 17 17 17 17 17 17 17 18 17 17 17 16 14 15 14 14
11 11 12 12 12 12 13 13 13 13 14 14 14 14 14 13 14 15 15 15 16 16 16 15 14 14 16 16 16 17 16 17 17 18 18 17 18 17 17 16 16 15 14 13 12
10 11 11 12 12 12 13 13 13 13 14 14 14 14 14 12 14 14 14 15 15 15 15 16 16 15 15 16 16 16 17 18 18 18 18 18 18 18 17 16 15 15 14 13 12
10 10 11 11 12 12 13 13 13 13 14 14 14 14 13 14 14 14 14 15 15 15 15 16 16 15 15 16 16 17 18 19 19 18 18 18 19 17 16 16 16 14 14 13 12
10 10 11 11 11 12 12 12 13 13 13 13 14 14 13 14 14 14 14 14 15 15 15 15 16 15 16 16 18 18 19 19 19 18 18 18 18 18 17 16 16 15 15 14 14
9 10 10 11 11 11 12 12 13 13 13 13 13 13 14 14 14 14 14 14 14 15 15 15 15 16 17 18 19 20 20 20 19 19 18 18 19 18 17 17 16 14 16 14 14
9 10 10 10 11 11 11 12 12 12 13 13 12 13 14 14 14 14 14 14 14 14 14 14 16 17 18 18 18 18 18 18 19 18 17 18 18 18 18 17 16 15 15 12 11
9 10 10 10 10 11 11 11 12 12 13 13 13 13 14 14 13 14 14 14 13 14 15 15 16 17 16 16 16 17 18 18 18 18 17 18 18 18 18 17 16 15 13 12 11
9 9 10 10 10 10 11 11 12 12 13 13 13 14 13 14 13 13 14 13 14 14 15 16 17 16 15 16 16 17 18 18 18 18 18 18 18 18 18 16 16 16 14 13 11
9 9 9 10 10 10 10 11 11 12 12 14 14 13 12 13 13 13 14 13 14 15 15 16 16 15 16 16 16 18 17 17 17 18 19 18 20 19 19 17 16 15 14 13 12
8 9 9 9 10 9 11 11 11 11 15 14 13 13 12 13 14 13 13 13 14 15 15 17 16 15 15 16 16 18 16 17 17 17 18 19 19 20 19 18 17 16 15 14 12
8 8 9 9 9 9 10 10 10 11 15 14 13 13 13 13 14 13 13 13 14 14 14 15 15 15 16 16 15 16 16 16 17 18 19 20 19 20 19 18 17 16 15 13 12
8 8 8 8 9 9 9 9 10 13 14 14 13 13 14 14 14 13 13 13 14 14 15 15 15 15 15 16 16 16 16 18 20 20 21 19 19 19 18 17 16 16 15 13 12
7 8 8 8 9 9 9 8 11 14 15 13 14 14 15 15 15 14 13 14 14 15 17 17 17 16 16 15 17 17 17 18 19 20 20 18 19 18 17 16 16 15 15 13 12
7 7 8 8 8 8 8 9 12 14 13 13 12 14 15 15 15 14 14 15 15 15 16 17 17 16 15 16 16 17 16 17 18 18 19 19 19 18 17 17 16 15 14 13 13
6 7 7 8 8 8 7 10 12 11 11 11 13 14 15 15 14 15 15 15 15 15 15 16 17 16 15 15 15 16 17 17 17 18 18 20 19 19 17 17 16 15 14 13 12
6 5 7 7 7 7 8 10 11 10 10 11 13 14 15 15 15 15 15 15 15 15 15 15 15 17 15 15 16 16 16 16 17 18 19 18 16 17 17 17 16 15 14 13 13
5 5 6 7 6 6 8 10 10 9 9 10 11 12 13 13 14 15 15 15 14 15 15 15 15 16 16 17 16 16 17 17 17 18 18 18 17 16 17 16 16 15 14 13 12
3 4 5 6 6 8 8 9 8 9 9 10 11 11 11 12 13 14 14 13 13 14 15 15 15 15 16 16 16 15 16 16 16 16 17 17 18 16 16 16 15 15 14 13 12
3 4 3 5 5 6 8 7 7 8 9 9 10 10 10 11 11 12 13 12 13 13 13 14 14 15 17 15 15 16 16 16 16 16 17 18 18 17 17 16 16 14 14 15 14
2 4 4 5 6 6 7 7 8 8 7 8 9 9 10 11 12 11 13 12 12 12 12 13 13 14 15 16 16 16 16 17 16 16 16 17 16 15 16 16 15 14 15 15 14
1 2 3 4 4 5 5 6 7 8 8 8 8 9 10 10 11 12 12 12 13 12 12 12 12 13 14 15 16 16 16 16 16 16 16 17 16 14 15 16 14 13 15 14 14
2 2 3 4 3 4 6 6 6 7 7 7 8 9 9 9 10 9 9 10 10 10 11 12 12 12 14 15 16 16 16 16 16 16 16 17 16 15 15 14 15 13 13 13 12

GFSSW_700_temp_024.txt.gz
Temp
12 12 12 12 12 13 13 13 13 13 13 14 14 14 14 15 15 15 15 15 16 16 16 16 16 16 16 17 17 17 17 17 20 20 19 19 18 18 17 16 15 15 14 15 15
11 12 12 12 12 13 13 13 13 13 14 14 14 14 14 14 15 15 15 15 16 16 16 16 15 16 16 17 18 17 16 17 19 19 19 19 18 18 17 14 14 14 15 15 15
12 12 12 12 12 13 13 13 13 13 14 14 14 15 15 15 15 15 15 16 16 16 16 16 16 15 16 18 18 17 15 18 19 18 19 19 19 19 18 16 15 14 16 15 15
11 12 12 12 12 12 13 13 13 14 14 14 14 15 15 15 14 15 15 16 16 16 16 16 16 16 17 18 18 17 18 19 18 18 18 19 18 19 18 17 16 14 16 16 15
11 12 12 12 12 12 13 13 13 13 14 14 14 14 15 15 14 15 15 16 16 16 16 14 15 16 17 18 18 18 19 18 18 18 18 18 18 18 18 17 16 15 15 15 15
11 12 12 12 12 12 13 13 13 13 14 14 14 14 14 14 14 15 16 16 16 16 14 15 16 16 17 17 18 18 18 18 18 19 19 18 18 18 18 17 16 15 13 13 12
11 11 12 12 12 12 13 13 13 13 14 14 14 14 14 13 14 15 15 16 16 16 14 14 15 15 17 17 17 17 18 18 19 19 19 18 18 17 18 17 16 15 14 13 12
10 11 11 12 12 12 13 13 13 13 13 14 14 14 13 14 14 15 15 15 16 16 16 16 16 16 16 17 17 18 18 19 20 19 19 19 18 18 18 17 17 16 15 14 13
10 10 11 11 12 12 12 13 13 13 13 13 14 14 13 14 15 15 15 14 15 15 16 16 16 16 17 17 18 19 19 20 19 19 19 19 19 19 18 17 17 15 15 14 13
10 10 11 11 12 12 12 12 13 13 13 13 14 14 14 14 14 14 15 14 14 15 15 16 16 16 17 18 19 20 20 21 19 20 19 19 19 19 18 18 17 16 14 13 12
9 10 10 11 11 12 12 12 12 12 13 14 12 14 13 13 14 14 15 14 14 14 15 15 16 17 19 19 19 18 19 20 20 20 19 18 19 19 19 18 18 16 15 13 12
9 10 10 11 11 11 11 11 11 12 13 14 13 13 13 13 13 14 14 14 14 15 15 16 17 18 18 18 18 18 19 19 20 19 18 18 19 19 19 18 18 17 16 13 12
9 10 10 10 11 10 11 11 12 12 12 14 13 13 13 14 13 14 14 14 15 15 16 17 18 17 17 17 18 18 19 19 19 19 19 19 19 19 19 18 17 17 15 14 13
9 9 10 10 10 10 10 11 11 11 11 14 14 13 13 13 14 15 14 14 15 16 16 17 17 17 17 17 18 18 19 18 18 18 19 20 20 20 19 18 17 16 16 14 13
8 9 9 9 10 9 10 11 11 11 14 16 14 14 14 14 15 15 14 14 15 16 16 17 17 17 17 17 18 18 18 18 18 18 19 20 20 19 19 19 17 17 15 15 13
8 8 9 9 9 9 10 10 10 10 14 15 14 14 14 14 15 15 14 14 15 16 16 17 17 17 17 17 17 17 17 17 18 18 19 19 20 20 19 18 17 17 15 14 13
8 8 9 9 9 10 10 10 9 12 15 16 15 15 15 15 15 15 14 14 15 15 16 16 17 17 17 17 17 17 17 18 19 20 20 18 17 19 19 18 17 17 15 14 12
7 8 8 8 9 9 9 8 10 13 14 16 16 15 15 16 15 15 15 15 15 16 17 17 18 17 17 17 18 17 17 18 18 19 18 17 18 18 19 17 16 16 15 13 12
7 8 8 8 8 8 8 8 11 13 15 16 15 16 16 16 16 16 15 15 16 16 17 18 18 18 18 17 17 17 17 18 18 19 19 20 19 18 17 17 16 16 15 14 12
6 7 7 8 8 8 8 9 11 13 13 14 15 15 16 16 16 16 16 16 16 16 16 17 18 18 17 17 17 17 17 18 18 18 18 20 16 13 14 13 16 16 15 14 13
6 6 6 7 7 7 8 9 11 12 12 13 14 15 16 17 17 16 16 16 16 17 17 16 17 18 17 16 17 17 17 17 17 18 18 19 15 17 16 11 16 16 15 14 13
5 5 5 6 7 7 7 9 11 12 11 11 12 13 14 16 16 16 17 16 16 17 17 16 16 17 17 17 17 17 18 17 18 18 18 18 18 17 16 16 16 16 15 14 13
5 5 5 6 6 7 8 9 10 11 11 11 12 12 13 13 14 15 16 15 15 16 16 16 16 16 16 17 17 17 17 17 17 17 17 16 15 14 15 16 16 16 15 14 12
4 5 5 6 7 7 8 10 11 10 10 11 12 12 12 12 13 13 15 14 14 14 15 15 15 16 17 17 16 16 17 17 17 17 17 18 17 14 15 14 15 15 15 13 12
4 5 6 6 6 6 7 9 10 10 9 10 11 11 11 12 12 12 14 14 13 13 13 14 14 14 15 16 16 17 17 17 17 17 17 17 16 14 14 15 10 13 14 13 13
1 3 4 5 5 7 7 8 9 10 10 9 9 11 11 12 12 13 13 13 13 13 13 13 13 13 14 15 16 17 17 17 17 17 17 17 17 16 14 12 12 12 14 13 13
3 3 2 4 5 6 7 7 8 8 10 10 10 10 11 11 11 11 11 12 11 12 13 13 13 13 13 15 15 16 16 17 17 17 17 17 17 14 13 10 10 13 13 13 13

GFSSW_700_temp_027.txt.gz
Temp
12 12 12 12 12 12 13 13 13 13 13 14 14 14 14 15 15 16 16 16 16 16 16 16 16 16 17 17 16 15 15 14 15 17 18 18 18 17 17 16 15 15 16 15 15
11 12 12 12 12 12 12 13 13 13 14 14 14 14 15 15 15 16 16 16 16 16 16 17 16 16 17 16 16 16 17 17 17 18 19 19 18 18 17 17 16 16 15 15 15
11 11 12 12 12 12 13 13 13 13 14 14 14 14 15 15 15 15 16 16 16 16 16 16 17 17 17 17 17 17 17 18 18 18 19 19 18 18 17 16 16 17 16 15 16
11 12 12 12 12 13 13 13 13 13 14 14 14 15 15 14 14 15 15 16 16 16 16 16 16 17 17 17 18 18 18 18 18 18 18 18 19 17 17 17 16 17 16 16 16
11 12 12 12 12 13 13 13 13 13 14 14 14 15 15 15 15 15 15 16 16 16 16 17 16 16 16 17 18 18 18 18 18 18 18 18 18 18 18 17 16 16 16 16 16
11 11 12 12 12 13 13 13 13 13 14 14 14 14 15 15 15 15 16 16 16 16 16 15 15 15 17 17 18 18 18 18 18 18 19 19 18 18 17 17 16 16 15 15 15
11 12 12 12 12 12 13 13 13 13 14 14 14 14 14 14 16 15 16 16 16 16 16 14 16 16 16 17 17 17 18 18 18 19 19 19 18 18 17 17 16 15 15 14 13
10 11 12 12 12 12 13 13 13 13 14 14 14 14 14 15 15 15 16 16 16 16 16 16 16 17 17 16 17 17 18 18 18 19 19 19 18 18 17 17 17 16 15 14 13
10 11 11 12 12 12 13 13 13 13 13 14 14 14 14 15 15 15 15 15 15 16 16 16 17 17 17 16 17 18 18 19 19 19 19 19 19 18 18 17 17 16 15 14 13
10 10 11 11 12 12 12 12 13 13 13 14 14 14 14 14 15 15 15 15 14 15 16 16 16 17 17 17 17 18 19 19 19 19 19 19 19 18 18 18 17 16 16 15 14
10 10 11 11 11 12 12 12 12 12 13 14 13 14 13 14 14 15 15 15 15 15 15 16 16 17 18 18 18 18 19 19 19 20 19 19 19 19 19 18 18 17 16 15 14
9 10 10 11 11 11 11 11 12 12 14 14 14 14 13 13 14 14 14 14 15 15 15 15 16 17 17 18 18 18 18 19 19 19 19 19 18 19 19 18 18 17 17 15 14
9 9 10 10 10 11 11 10 12 12 13 14 14 14 14 13 14 14 14 15 14 15 15 16 17 17 17 17 18 18 18 19 19 19 19 19 19 19 19 18 18 17 16 15 14
9 9 10 10 10 10 9 11 11 12 12 14 15 15 14 13 14 15 14 15 14 15 16 16 17 17 17 17 17 18 18 19 18 18 18 18 18 19 19 18 17 17 16 15 15
8 9 9 9 10 10 11 11 11 11 10 16 15 14 15 14 15 15 14 14 14 15 16 16 17 17 17 17 18 18 18 18 18 18 18 18 18 18 19 18 17 16 15 15 14
8 8 9 9 9 10 10 10 10 11 11 15 15 14 14 14 15 15 14 14 15 15 16 16 17 17 17 17 17 17 17 17 17 17 17 18 18 18 18 18 17 17 15 15 14
8 8 9 9 9 10 10 10 10 9 14 15 15 15 14 14 15 15 15 14 14 15 15 16 16 17 17 17 17 17 17 17 15 14 14 18 18 18 18 17 17 15 15 15 14
7 8 8 8 9 10 9 9 8 12 14 16 15 15 14 15 15 15 15 14 14 15 15 16 16 17 17 17 17 17 17 17 15 13 16 18 18 17 17 17 16 15 15 14 14
7 8 8 8 9 8 8 8 10 12 13 14 14 15 15 15 15 15 15 15 15 15 15 16 17 17 17 17 17 17 17 17 17 18 17 18 17 17 16 16 14 14 12 15 15
7 7 7 8 8 8 7 8 11 12 12 13 14 16 15 16 16 16 16 15 15 15 16 16 16 18 17 17 17 17 17 17 17 14 14 17 17 17 16 16 15 16 13 13 15
6 6 7 7 7 7 8 10 10 12 12 12 13 14 15 15 16 16 16 16 16 16 16 16 16 17 17 17 17 17 17 17 17 17 14 12 16 15 16 16 15 15 13 13 14
5 5 5 5 7 7 9 10 10 11 11 12 12 13 13 14 15 16 16 16 16 16 16 16 16 16 16 17 17 17 17 17 17 16 17 17 16 16 14 12 13 12 10 13 14
5 4 5 5 6 7 8 9 10 11 11 11 12 12 13 13 14 15 16 16 16 17 16 16 16 16 16 17 17 17 17 17 17 17 17 16 16 15 14 13 12 13 9 12 13
4 4 5 6 6 6 7 8 9 10 10 11 11 12 12 13 13 14 14 15 15 16 16 15 16 15 16 16 16 16 17 17 17 17 17 17 15 15 15 14 13 12 12 13 12
4 4 4 5 6 7 7 8 9 10 10 11 11 11 12 12 12 13 13 13 14 15 15 15 15 15 15 15 15 15 16 16 17 17 17 17 16 15 16 16 15 14 14 13 13
3 3 4 5 5 6 6 8 8 10 10 10 10 11 11 11 12 12 12 13 13 13 14 14 14 14 14 14 14 15 15 16 16 17 17 17 15 14 14 14 14 14 13 13 13
3 3 4 5 6 6 6 7 8 8 10 10 10 10 10 10 10 11 12 12 12 13 13 13 13 13 13 13 14 14 15 15 16 16 16 16 16 14 14 13 12 12 14 13 12

GFSSW_700_temp_030.txt.gz
Temp
12 12 12 12 12 12 12 13 13 13 13 13 14 14 15 15 16 16 16 16 16 16 16 16 16 16 16 16 15 16 17 17 17 17 16 17 18 16 17 17 16 16 15 15 15
12 12 12 12 12 12 12 12 13 13 13 14 14 14 15 15 15 15 15 16 16 16 17 17 16 16 16 16 16 16 17 17 17 17 16 17 18 17 17 17 16 16 16 15 15
11 12 12 12 12 12 12 13 13 13 14 14 14 14 14 15 15 15 15 16 16 16 17 17 16 17 16 16 16 16 17 17 18 18 18 17 17 17 17 17 16 17 16 16 15
11 12 12 12 12 12 13 13 13 13 13 14 14 14 14 15 14 15 16 16 16 16 16 16 16 16 16 16 16 17 18 18 18 18 18 18 17 17 17 17 17 16 16 16 16
11 12 12 12 12 12 13 13 13 13 14 14 14 15 14 15 15 15 15 16 16 16 16 16 16 16 17 16 17 17 18 18 18 18 18 18 18 18 17 17 17 16 16 16 16
11 11 12 12 12 12 13 13 13 13 14 14 14 14 15 15 15 15 16 15 16 16 16 16 16 16 16 17 17 17 18 18 18 18 18 18 18 18 17 17 17 16 16 16 16
11 11 12 12 12 12 13 13 13 13 14 14 14 14 14 15 15 15 15 16 16 16 16 17 17 17 16 17 17 17 18 18 18 18 18 18 18 18 18 17 17 16 16 15 15
11 11 11 12 12 12 13 13 13 13 14 14 14 14 14 15 15 15 15 15 15 16 16 17 17 17 17 17 17 18 17 18 18 18 18 18 19 18 18 17 17 16 16 16 15
10 11 11 12 12 12 12 13 13 13 14 14 14 14 15 15 15 15 15 15 16 16 16 16 16 16 17 17 17 18 18 18 18 18 19 18 19 18 17 17 17 16 16 15 15
10 10 11 11 12 12 12 12 13 13 14 14 14 14 14 14 15 15 15 15 16 16 16 16 16 17 17 17 18 17 18 18 18 18 19 18 18 18 17 17 17 16 16 15 15
10 10 10 11 11 12 12 12 12 13 13 14 14 14 14 14 14 15 15 15 15 15 16 16 16 17 17 17 17 17 18 19 19 19 19 19 19 19 18 17 17 16 16 15 15
10 10 10 10 11 11 11 12 12 13 14 14 14 14 14 15 14 14 15 15 15 15 15 15 16 17 17 17 17 18 18 18 19 19 18 19 18 19 19 18 17 17 16 15 15
9 10 10 10 10 10 10 11 11 12 13 14 14 15 14 14 15 14 14 14 15 15 15 15 16 16 16 17 17 17 18 18 18 18 18 18 19 19 18 18 17 17 16 15 16
9 9 10 10 10 10 10 11 12 12 12 15 15 15 14 14 15 15 15 14 14 15 15 15 16 17 17 17 17 17 18 17 18 18 18 18 17 18 19 18 17 16 15 16 16
8 9 9 9 10 10 11 11 10 11 10 15 15 15 15 15 15 16 15 14 14 15 14 16 16 16 17 17 17 17 17 17 17 17 17 18 17 18 18 17 16 15 15 16 15
8 9 9 9 9 10 11 10 10 11 11 14 15 15 14 15 15 14 14 14 14 15 15 15 16 16 17 17 17 17 17 17 17 17 16 18 17 18 16 17 17 16 16 15 14
8 8 9 9 9 10 10 10 9 10 13 14 14 15 15 15 15 14 14 14 14 14 15 15 16 16 16 17 17 17 17 16 14 13 13 17 17 17 17 17 17 16 15 14 14
8 8 8 8 9 9 9 9 9 11 13 14 14 14 15 15 15 15 14 14 14 14 14 15 16 16 17 17 17 17 17 16 13 11 15 17 17 16 17 17 15 16 14 11 10
8 8 8 8 8 9 8 8 10 12 12 12 13 14 14 14 14 15 14 14 15 14 14 15 15 16 16 16 17 16 16 17 17 16 15 16 15 14 15 16 15 14 14 14 11
7 7 8 8 8 8 8 8 10 12 12 12 12 13 15 15 14 15 15 15 15 15 15 15 15 17 16 17 17 17 17 17 17 13 14 15 16 16 15 15 14 15 14 14 13
6 7 7 7 7 7 8 10 11 11 11 11 11 12 13 13 14 15 15 15 15 15 15 15 15 17 16 17 17 17 17 16 16 16 13 10 15 16 16 15 15 15 14 14 15
5 5 6 6 6 7 8 10 10 10 11 10 11 12 12 13 14 15 15 15 15 16 15 15 15 16 16 16 16 17 17 17 16 16 16 15 16 16 15 15 15 14 14 14 15
4 4 5 4 5 6 7 8 8 10 11 11 11 12 12 12 14 13 14 15 15 16 16 16 15 16 16 16 16 16 16 16 16 16 17 15 16 15 15 15 14 14 14 14 14
4 4 3 4 5 5 6 7 8 9 10 10 10 11 12 12 12 13 13 14 14 16 16 16 16 16 16 15 15 15 16 16 16 16 16 16 16 16 15 13 14 14 13 13 13
3 2 3 4 5 5 5 7 8 8 10 10 10 11 11 12 12 12 13 13 13 14 15 15 15 15 15 15 15 15 15 16 15 15 15 16 16 16 15 13 14 13 13 13 13
3 3 3 4 5 6 6 7 7 8 9 10 10 11 11 11 11 11 12 13 13 14 14 14 14 15 15 15 15 15 15 16 15 15 15 15 16 16 13 12 12 11 13 13 11
3 3 3 4 5 5 4 6 7 7 8 9 10 10 11 10 10 11 11 12 13 13 13 13 14 14 14 15 15 14 15 14 14 14 14 14 15 15 14 14 13 13 13 13 12

GFSSW_700_temp_033.txt.gz
Temp
12 12 12 12 12 12 13 13 13 13 13 13 13 14 14 14 15 15 15 16 16 16 16 16 16 16 17 17 16 16 17 17 17 16 15 16 16 16 16 16 16 16 15 15 14
11 12 12 12 12 12 12 13 13 13 13 13 14 14 14 14 15 15 15 16 16 16 16 16 16 16 16 16 16 17 18 18 17 17 17 16 16 17 16 16 16 16 16 15 14
11 11 12 12 12 12 12 13 13 13 13 14 14 14 14 14 15 15 15 16 16 16 16 16 16 16 16 16 16 17 17 17 17 17 16 16 16 17 17 16 16 16 16 16 15
11 11 12 12 12 12 12 13 13 13 13 14 14 14 14 14 14 15 15 16 16 16 16 16 16 16 16 16 16 17 17 17 18 17 17 17 17 17 17 16 16 16 16 16 15
11 11 12 12 12 12 13 13 13 13 13 14 14 14 14 14 14 15 15 16 16 16 16 16 16 16 17 16 16 17 17 17 18 18 17 17 18 17 17 17 17 17 16 16 15
11 11 12 12 12 12 12 13 13 13 13 14 14 14 14 14 15 15 15 16 16 16 16 16 16 16 17 16 16 17 17 17 18 18 18 18 18 17 17 17 17 17 16 15 15
11 11 12 12 12 12 12 13 13 13 13 14 14 14 14 14 14 15 15 16 15 16 16 17 16 17 16 16 17 17 17 17 18 18 18 18 18 18 18 17 17 17 16 15 15
11 11 12 12 12 12 13 13 13 13 13 14 14 14 14 15 15 15 15 15 15 16 16 16 16 17 16 16 17 17 18 18 18 18 18 18 18 18 18 18 17 17 16 15 15
10 11 11 12 12 12 12 13 13 13 13 14 14 14 14 14 14 14 15 15 16 16 16 16 17 17 17 17 17 17 18 18 18 18 18 18 18 18 18 18 17 17 16 16 15
10 11 11 12 12 12 12 12 13 13 13 14 14 14 14 14 14 14 14 15 15 15 16 16 16 16 17 17 17 17 17 17 18 18 18 18 18 18 18 18 17 17 16 15 15
10 10 11 11 12 12 12 12 12 13 13 14 14 14 14 14 14 14 14 15 15 15 16 16 16 17 17 16 17 17 17 17 18 18 18 18 18 18 18 17 17 17 16 16 15
10 10 10 10 11 11 11 12 12 13 14 14 14 14 14 14 15 15 14 14 15 15 15 15 16 17 16 16 17 17 17 18 18 18 18 18 18 18 18 18 18 18 17 16 15
9 10 10 10 10 10 11 11 12 12 13 14 14 14 14 14 15 15 14 14 14 14 14 15 16 16 16 16 16 17 17 17 17 18 18 18 18 18 18 18 18 17 16 15 15
9 9 10 10 10 10 11 11 11 11 12 14 14 15 14 14 15 14 14 14 14 15 14 15 16 16 16 16 17 17 17 17 17 17 17 17 17 18 18 19 18 17 16 15 15
9 9 9 9 10 10 10 11 10 10 10 14 14 14 15 15 15 15 15 14 15 14 14 15 15 15 16 16 17 17 17 17 17 17 17 18 17 17 18 18 17 17 16 16 15
8 9 9 9 9 10 10 10 10 10 11 14 14 15 14 14 15 15 15 14 14 14 14 15 15 15 16 17 16 17 16 17 17 17 16 16 16 17 17 17 17 16 15 14 13
8 8 9 9 9 9 9 9 9 10 12 13 13 14 14 15 14 14 14 14 14 13 14 15 15 16 16 16 16 17 16 16 14 12 13 16 16 17 16 16 16 15 15 13 12
8 8 8 8 9 9 9 8 9 11 12 12 13 13 14 14 14 14 13 14 14 14 14 15 15 16 16 16 16 16 16 16 13 10 13 16 15 16 16 16 16 15 13 14 14
7 8 8 8 8 8 8 7 9 11 10 11 13 13 14 14 14 14 14 14 14 14 14 14 15 16 16 16 16 16 16 16 16 15 13 14 14 14 15 16 15 14 15 15 14
7 7 7 7 8 8 7 8 10 11 11 11 12 12 13 14 14 14 14 14 14 14 14 14 14 15 16 16 16 16 16 16 16 13 13 14 15 15 15 16 15 16 16 15 14
6 6 7 7 7 7 7 8 9 10 10 10 11 12 12 12 13 14 14 14 15 15 14 14 14 16 16 16 17 16 16 16 16 15 11 9 15 15 15 15 15 15 15 15 14
5 5 5 6 6 6 7 8 9 9 10 10 10 11 11 12 13 13 14 14 15 15 14 14 14 15 15 15 16 16 16 16 16 15 14 14 16 16 14 14 14 14 14 14 14
4 5 4 4 4 5 6 7 8 8 9 9 10 10 11 12 12 13 14 14 15 15 15 15 15 14 14 15 16 16 15 15 16 16 16 14 16 16 16 16 15 14 14 13 14
3 3 3 4 4 5 5 7 7 8 9 10 10 10 11 12 12 12 13 14 15 15 15 15 15 15 15 15 16 16 15 15 15 15 14 15 16 16 16 16 15 15 15 13 14
3 3 4 4 4 4 4 6 7 8 8 10 10 10 11 11 12 12 13 13 13 14 15 14 15 15 15 15 15 15 16 15 15 14 14 15 15 16 15 15 14 14 14 13 13
2 3 3 3 3 5 5 6 7 7 8 9 10 10 10 11 11 12 12 13 13 13 14 15 14 14 14 14 14 15 15 15 15 14 14 14 15 15 16 15 14 14 14 14 13
2 3 3 3 4 4 4 5 6 6 7 8 9 10 10 10 11 11 12 13 13 13 14 14 14 14 14 14 14 14 14 14 14 14 14 14 15 15 15 14 14 13 13 13 12

GFSSW_700_temp_036.txt.gz
Temp
11 11 12 12 12 12 13 13 13 13 13 13 13 14 14 14 14 15 15 15 15 16 16 16 16 16 17 16 16 16 17 17 16 16 16 15 15 15 15 16 15 15 15 14 14
12 11 12 12 12 12 12 13 13 13 13 13 13 13 14 14 15 15 15 15 15 16 16 16 16 16 16 16 16 17 17 17 17 16 16 16 16 16 16 16 16 15 15 15 14
11 11 12 12 12 12 12 13 13 13 13 13 13 14 14 14 14 15 15 15 16 16 16 16 16 16 16 16 16 17 17 17 17 17 17 17 16 16 16 16 16 15 15 15 14
11 11 11 12 12 12 12 13 13 13 13 14 14 14 14 14 14 15 15 15 15 16 16 16 16 16 16 16 17 17 17 17 17 17 17 17 16 16 16 16 16 16 15 15 14
11 11 11 12 12 12 12 13 13 13 13 13 14 14 14 14 14 15 15 15 15 16 16 16 16 16 16 16 17 17 17 17 17 17 17 17 17 16 16 16 16 16 15 15 14
11 11 11 12 12 12 12 12 13 13 13 13 14 14 14 14 14 15 15 15 15 15 16 16 16 16 16 16 17 17 17 17 18 17 17 17 17 16 17 16 16 16 16 15 14
11 11 12 12 12 12 12 12 12 13 13 13 14 14 14 14 15 15 15 15 15 15 15 16 16 16 16 16 17 17 17 17 17 17 17 17 17 17 17 17 17 17 16 15 14
11 11 11 12 12 12 12 12 13 13 13 13 14 14 14 14 14 15 15 15 15 15 15 15 16 16 16 17 17 17 17 17 18 17 17 17 18 17 17 17 17 17 16 15 14
10 11 11 12 12 12 12 12 13 13 13 13 14 14 14 14 14 15 15 15 15 15 15 15 16 16 16 16 16 17 17 17 18 18 18 18 18 18 18 18 17 17 16 16 15
10 11 11 11 11 12 12 12 13 13 13 13 14 14 14 14 14 14 15 15 15 15 15 15 16 16 16 17 17 17 17 17 17 17 18 18 18 18 18 18 18 17 16 16 15
10 10 10 11 11 12 12 12 12 13 13 13 14 14 14 14 14 14 15 15 15 15 15 16 16 17 16 16 17 16 17 17 17 17 18 18 18 18 18 18 18 17 17 16 15
9 10 10 10 10 11 12 12 12 13 13 13 14 14 14 14 14 14 15 15 15 14 15 15 16 16 16 16 16 16 17 17 17 17 17 18 18 18 18 18 18 17 17 16 15
9 10 10 10 10 10 11 12 12 12 12 14 14 14 13 14 14 14 14 14 14 14 14 15 15 16 16 16 16 16 16 17 17 17 17 18 18 18 18 18 18 18 18 15 15
9 10 10 10 10 10 10 11 11 11 12 14 14 14 14 14 14 14 14 14 14 14 14 15 15 15 15 16 16 16 17 17 17 17 17 17 16 18 18 18 18 17 16 15 14
9 9 9 9 10 10 10 10 10 10 9 13 14 14 14 14 14 15 14 14 14 14 14 14 15 15 15 16 16 16 16 16 16 17 17 16 16 17 17 18 18 17 17 15 15
9 8 9 9 9 10 10 9 10 9 10 13 13 13 14 14 14 14 14 13 13 13 14 14 14 15 16 16 16 16 16 16 16 17 16 16 15 17 17 17 17 17 16 15 15
8 8 8 9 9 9 9 9 9 9 12 12 12 13 13 14 14 14 14 13 13 13 14 14 15 15 15 15 16 16 16 15 14 12 12 16 15 16 16 16 16 16 16 15 14
8 8 8 8 9 9 8 8 8 10 11 12 12 12 13 13 14 13 13 13 13 13 14 14 15 16 16 16 16 16 16 15 13 9 13 15 15 17 16 17 17 16 15 15 13
7 8 8 8 8 8 7 7 9 10 10 12 12 13 13 13 13 14 13 13 13 13 13 14 15 15 16 16 16 16 16 16 16 13 13 15 15 16 16 16 16 16 16 15 14
7 7 7 7 7 7 7 8 9 10 10 10 11 12 12 13 13 13 13 13 14 14 14 14 14 15 15 15 16 16 16 16 15 12 13 13 15 16 16 16 16 16 15 14 14
6 6 7 7 7 7 7 8 9 9 10 10 10 11 12 12 13 13 13 14 14 14 14 13 14 15 15 15 16 16 16 16 15 15 10 9 15 16 16 16 16 15 15 14 14
5 5 6 6 6 6 7 7 8 8 9 10 10 10 11 11 12 13 13 14 14 14 14 14 14 14 15 15 15 15 16 16 15 14 14 14 16 16 16 16 15 14 14 14 14
4 4 4 5 5 6 6 6 7 8 8 8 9 10 10 11 12 12 13 14 14 14 14 14 14 14 14 15 15 15 15 16 16 15 15 14 15 16 16 15 15 15 14 14 13
3 3 3 4 4 4 5 6 7 7 8 8 9 10 10 11 11 12 12 13 14 15 14 14 14 14 14 15 15 15 15 15 15 15 14 15 15 15 16 16 15 14 14 13 13
3 3 3 3 4 4 4 5 6 7 7 8 9 10 10 10 11 12 12 13 13 15 15 14 14 14 15 15 15 15 15 15 15 15 15 15 15 15 15 16 14 14 13 13 12
3 2 3 3 3 4 4 5 6 6 7 8 8 10 10 10 11 12 12 12 13 13 14 14 14 14 14 14 14 14 14 14 14 14 14 14 14 15 15 15 16 13 13 13 12
3 2 3 3 3 3 4 5 6 6 7 8 8 9 10 10 11 11 12 12 13 13 13 13 14 14 13 13 14 14 14 14 14 14 14 14 14 15 14 15 15 13 13 13 12